• en Suisse
  • Liste des pays
  • À 7 jours
  • Température de l'eau
  • Carte satellitaire
  • Carte météo
  • Widgets météo
  • user-avatar
    Se connecter

    Météo par heure à Vatican

    Ce jour, 21 Février, Mercredi

    Heure Température Précipitation Vent Pression Humidité
    00:00 +7°C° 0 mm 3 m/s 751 mmHg 74%
    01:00 +7°C° 0 mm 3 m/s 750 mmHg 75%
    02:00 +7°C° 0,1 mm 3 m/s 750 mmHg 75%
    03:00 +5°C° 0,1 mm 3 m/s 750 mmHg 75%
    04:00 +5°C° 0,1 mm 3 m/s 750 mmHg 75%
    05:00 +5°C° 0,1 mm 3 m/s 750 mmHg 74%
    06:00 +5°C° 0,1 mm 3 m/s 750 mmHg 74%
    07:00 +5°C° 0,1 mm 3 m/s 749 mmHg 73%
    08:00 +7°C° 0,1 mm 3 m/s 749 mmHg 70%
    09:00 +8°C° 0,1 mm 3 m/s 749 mmHg 66%
    10:00 +9°C° 0,1 mm 3 m/s 749 mmHg 62%
    11:00 +10°C° 0 mm 2 m/s 749 mmHg 59%
    12:00 +12°C° 0 mm 2 m/s 749 mmHg 55%
    13:00 +13°C° 0 mm 2 m/s 749 mmHg 52%
    14:00 +13°C° 0,1 mm 2 m/s 749 mmHg 54%
    15:00 +13°C° 0,1 mm 2 m/s 749 mmHg 56%
    16:00 +12°C° 0,1 mm 3 m/s 748 mmHg 58%
    17:00 +11°C° 0,1 mm 3 m/s 749 mmHg 62%
    18:00 +10°C° 0,1 mm 3 m/s 749 mmHg 66%
    19:00 +9°C° 0,1 mm 3 m/s 749 mmHg 70%
    20:00 +8°C° 0,3 mm 3 m/s 749 mmHg 73%
    21:00 +8°C° 0,3 mm 2 m/s 749 mmHg 76%
    22:00 +8°C° 0,3 mm 2 m/s 749 mmHg 79%
    23:00 +7°C° 0,2 mm 2 m/s 749 mmHg 80%

    Demain, 22 Février, Jeudi

    Heure Température Précipitation Vent Pression Humidité
    00:00 +8°C° 0,2 mm 1 m/s 749 mmHg 80%
    01:00 +8°C° 0,2 mm 1 m/s 749 mmHg 81%
    02:00 +8°C° 0,3 mm 1 m/s 749 mmHg 82%
    03:00 +7°C° 0,3 mm 2 m/s 748 mmHg 83%
    04:00 +7°C° 0,3 mm 2 m/s 748 mmHg 83%
    05:00 +7°C° 0,2 mm 3 m/s 748 mmHg 83%
    06:00 +7°C° 0,2 mm 3 m/s 748 mmHg 82%
    07:00 +6°C° 0,2 mm 4 m/s 748 mmHg 82%
    08:00 +7°C° 0,2 mm 4 m/s 748 mmHg 78%
    09:00 +8°C° 0,2 mm 5 m/s 748 mmHg 74%
    10:00 +9°C° 0,2 mm 5 m/s 748 mmHg 70%
    11:00 +9°C° 0,6 mm 5 m/s 749 mmHg 73%
    12:00 +9°C° 0,6 mm 5 m/s 749 mmHg 76%
    13:00 +9°C° 0,6 mm 6 m/s 749 mmHg 78%
    14:00 +8°C° 0,8 mm 6 m/s 749 mmHg 81%
    15:00 +8°C° 0,8 mm 5 m/s 748 mmHg 83%
    16:00 +8°C° 0,8 mm 5 m/s 748 mmHg 85%
    17:00 +8°C° 0,7 mm 5 m/s 749 mmHg 86%
    18:00 +8°C° 0,7 mm 4 m/s 749 mmHg 86%
    19:00 +7°C° 0,7 mm 4 m/s 749 mmHg 87%
    20:00 +7°C° 0,5 mm 4 m/s 749 mmHg 86%
    21:00 +7°C° 0,5 mm 4 m/s 749 mmHg 86%
    22:00 +7°C° 0,5 mm 4 m/s 750 mmHg 86%
    23:00 +7°C° 0,3 mm 4 m/s 750 mmHg 85%

    Après-demain, 23 Février, Vendredi

    Heure Température Précipitation Vent Pression Humidité
    00:00 +7°C° 0,3 mm 4 m/s 750 mmHg 84%
    01:00 +6°C° 0,3 mm 4 m/s 750 mmHg 84%
    02:00 +7°C° 0,1 mm 3 m/s 750 mmHg 84%
    03:00 +7°C° 0,1 mm 3 m/s 750 mmHg 85%
    04:00 +7°C° 0,1 mm 3 m/s 749 mmHg 85%
    05:00 +7°C° 0,1 mm 2 m/s 750 mmHg 85%
    06:00 +7°C° 0,1 mm 2 m/s 750 mmHg 85%
    07:00 +6°C° 0,1 mm 2 m/s 750 mmHg 86%
    08:00 +8°C° 0 mm 2 m/s 750 mmHg 82%
    09:00 +9°C° 0 mm 2 m/s 751 mmHg 78%
    10:00 +10°C° 0 mm 2 m/s 751 mmHg 74%
    11:00 +10°C° 0 mm 2 m/s 751 mmHg 70%
    12:00 +12°C° 0 mm 2 m/s 750 mmHg 66%
    13:00 +12°C° 0 mm 2 m/s 750 mmHg 63%
    14:00 +12°C° 0,1 mm 2 m/s 750 mmHg 65%
    15:00 +11°C° 0,1 mm 3 m/s 750 mmHg 66%
    16:00 +11°C° 0,1 mm 4 m/s 749 mmHg 68%
    17:00 +9°C° 0,3 mm 5 m/s 749 mmHg 71%
    18:00 +9°C° 0,3 mm 5 m/s 749 mmHg 74%
    19:00 +8°C° 0,3 mm 6 m/s 749 mmHg 78%
    20:00 +8°C° 0,9 mm 6 m/s 749 mmHg 81%
    21:00 +7°C° 0,9 mm 6 m/s 749 mmHg 84%
    22:00 +7°C° 0,9 mm 6 m/s 749 mmHg 88%
    23:00 +7°C° 0,8 mm 6 m/s 749 mmHg 88%

    24 Février, Samedi

    Heure Température Précipitation Vent Pression Humidité
    00:00 +7°C° 0,8 mm 6 m/s 749 mmHg 89%
    01:00 +7°C° 0,8 mm 5 m/s 749 mmHg 89%
    02:00 +7°C° 0,3 mm 5 m/s 750 mmHg 88%
    03:00 +7°C° 0,3 mm 5 m/s 750 mmHg 88%
    04:00 +7°C° 0,3 mm 5 m/s 750 mmHg 87%
    05:00 +7°C° 0,4 mm 5 m/s 751 mmHg 87%
    06:00 +7°C° 0,4 mm 4 m/s 751 mmHg 87%
    07:00 +7°C° 0,4 mm 4 m/s 752 mmHg 87%
    08:00 +8°C° 0,3 mm 4 m/s 752 mmHg 84%
    09:00 +10°C° 0,3 mm 3 m/s 753 mmHg 81%
    10:00 +12°C° 0,3 mm 2 m/s 753 mmHg 78%
    11:00 +12°C° 0,3 mm 2 m/s 754 mmHg 74%
    12:00 +13°C° 0,3 mm 2 m/s 754 mmHg 70%
    13:00 +13°C° 0,3 mm 2 m/s 754 mmHg 67%
    14:00 +13°C° 0,1 mm 2 m/s 754 mmHg 67%
    15:00 +13°C° 0,1 mm 2 m/s 754 mmHg 67%
    16:00 +13°C° 0,1 mm 2 m/s 754 mmHg 67%
    17:00 +12°C° 0 mm 2 m/s 754 mmHg 70%
    18:00 +10°C° 0 mm 2 m/s 754 mmHg 73%
    19:00 +11°C° 0 mm 1 m/s 755 mmHg 76%
    20:00 +10°C° 0 mm 1 m/s 755 mmHg 77%
    21:00 +10°C° 0 mm 1 m/s 755 mmHg 79%
    22:00 +10°C° 0 mm 1 m/s 756 mmHg 80%
    23:00 +9°C° 0 mm 1 m/s 756 mmHg 81%

    25 Février, Dimanche

    Heure Température Précipitation Vent Pression Humidité
    00:00 +8°C° 0 mm 2 m/s 755 mmHg 83%
    01:00 +8°C° 0 mm 2 m/s 755 mmHg 84%
    02:00 +8°C° 0 mm 2 m/s 755 mmHg 84%
    03:00 +7°C° 0 mm 2 m/s 755 mmHg 85%
    04:00 +7°C° 0 mm 2 m/s 755 mmHg 85%
    05:00 +7°C° 0 mm 2 m/s 755 mmHg 85%
    06:00 +7°C° 0 mm 2 m/s 755 mmHg 85%
    07:00 +6°C° 0 mm 2 m/s 755 mmHg 84%
    08:00 +8°C° 0 mm 2 m/s 755 mmHg 80%
    09:00 +9°C° 0 mm 2 m/s 755 mmHg 75%
    10:00 +12°C° 0 mm 1 m/s 755 mmHg 70%
    11:00 +12°C° 0 mm 2 m/s 754 mmHg 67%
    12:00 +13°C° 0 mm 2 m/s 754 mmHg 64%
    13:00 +14°C° 0 mm 2 m/s 754 mmHg 60%
    14:00 +14°C° 0,1 mm 2 m/s 754 mmHg 62%
    15:00 +12°C° 0,1 mm 3 m/s 753 mmHg 63%
    16:00 +12°C° 0,1 mm 3 m/s 753 mmHg 64%
    17:00 +11°C° 0,1 mm 3 m/s 753 mmHg 68%
    18:00 +10°C° 0,1 mm 3 m/s 753 mmHg 72%
    19:00 +9°C° 0,1 mm 3 m/s 754 mmHg 76%
    20:00 +9°C° 0,1 mm 3 m/s 754 mmHg 77%
    21:00 +8°C° 0,1 mm 3 m/s 754 mmHg 79%
    22:00 +7°C° 0,1 mm 4 m/s 754 mmHg 80%
    23:00 +7°C° 0,4 mm 4 m/s 754 mmHg 82%

    26 Février, Lundi

    Heure Température Précipitation Vent Pression Humidité
    00:00 +7°C° 0,4 mm 4 m/s 754 mmHg 83%
    01:00 +6°C° 0,4 mm 5 m/s 754 mmHg 85%
    02:00 +6°C° 0,3 mm 5 m/s 754 mmHg 84%
    03:00 +4°C° 0,3 mm 6 m/s 754 mmHg 84%
    04:00 +4°C° 0,3 mm 7 m/s 754 mmHg 83%
    05:00 +3°C° 0 mm 7 m/s 754 mmHg 81%
    06:00 +3°C° 0 mm 7 m/s 754 mmHg 79%
    07:00 +2°C° 0 mm 7 m/s 755 mmHg 76%
    08:00 +2°C° 0 mm 8 m/s 755 mmHg 72%
    09:00 +2°C° 0 mm 8 m/s 755 mmHg 68%
    10:00 +2°C° 0 mm 8 m/s 756 mmHg 63%
    11:00 +4°C° 0 mm 7 m/s 756 mmHg 59%
    12:00 +4°C° 0 mm 7 m/s 756 mmHg 54%
    13:00 +5°C° 0 mm 7 m/s 756 mmHg 50%
    14:00 +5°C° 0 mm 8 m/s 756 mmHg 48%
    15:00 +4°C° 0 mm 8 m/s 756 mmHg 47%
    16:00 +4°C° 0 mm 8 m/s 756 mmHg 46%
    17:00 +2°C° 0 mm 8 m/s 756 mmHg 50%
    18:00 0°C° 0 mm 9 m/s 757 mmHg 54%
    19:00 -1°C° 0 mm 9 m/s 757 mmHg 57%
    20:00 -2°C° 0 mm 8 m/s 757 mmHg 58%
    21:00 -2°C° 0 mm 8 m/s 758 mmHg 58%
    22:00 -3°C° 0 mm 7 m/s 758 mmHg 59%
    23:00 -3°C° 0 mm 7 m/s 758 mmHg 58%
    Voir plus